#timestamp,LO_Frequency,Hit,StdDev 
1605092415.5,286046996.5,N
1605092435.3,286046997.1,N
1605092455.1,286046999.2,N
1605092475.9,286046995.0,N
1605092495.7,286046995.3,N
1605092515.5,286046997.4,N
1605092535.4,286046995.4,N
1605092555.2,286046997.4,N
1605092575.1,286046995.0,N
1605092576.0,286046995.0,N
1605092595.8,286046997.6,N
1605092615.6,286046996.7,N
1605092635.5,286046997.4,N
1605092655.3,286046998.5,N
1605092675.1,286046999.1,N
1605092695.9,286046998.6,N
1605092715.7,286046999.2,N
1605092735.6,286046997.6,N
1605092755.4,286046999.2,N
1605092775.2,286046994.9,Y
1605092795.1,286047000.6,P
1605092796.0,286047000.6,N
1605092815.8,286047002.4,N
1605092835.6,286047001.5,N
1605092855.5,286047002.8,N
1605092875.3,286047001.3,N
1605092895.2,286047002.6,N
1605092915.9,286047000.6,N
1605092935.7,286047002.1,N
1605092955.6,286047002.8,N
1605092975.4,286047002.0,N
1605092995.2,286047003.9,N
1605093015.1,286047001.3,N
1605093016.0,286047001.3,N
1605093035.8,286047003.9,N
1605093055.7,286047001.8,N
1605093075.5,286047002.7,N
1605093095.3,286047002.6,N
1605093115.2,286046999.9,N
1605093135.0,286046998.1,N
1605093135.9,286046998.1,N
1605093155.8,286046998.8,N
1605093175.6,286046998.5,N
1605093195.4,286047002.8,N
1605093215.3,286047000.8,N
1605093235.1,286047002.7,N
1605093255.8,286047000.0,N
1605093275.7,286046999.9,N
1605093295.5,286047002.8,N
1605093315.4,286047000.2,N
1605093335.2,286046999.7,N
1605093355.0,286047003.9,N
1605093355.9,286047003.9,N
1605093375.8,286047004.2,N
1605093395.6,286047002.5,N
1605093415.4,286047005.5,Y
1605093435.3,286047000.1,P
1605093455.1,286046998.4,N
1605093475.9,286047000.3,N
1605093495.7,286047001.0,N
1605093515.5,286046999.1,N
1605093535.4,286046998.6,N
1605093555.2,286046999.9,N
1605093575.0,286046999.3,N
1605093575.9,286046999.3,N
1605093595.8,286046999.2,N
1605093615.6,286046999.8,N
1605093635.5,286046998.1,N
1605093655.3,286047001.0,N
1605093675.1,286046997.1,N
1605093695.9,286046997.0,N
1605093715.7,286046997.0,N
1605093735.5,286046997.3,N
1605093755.4,286046995.3,Y
1605093775.2,286046996.9,P
1605093795.1,286046997.2,N
1605093796.0,286046997.2,N
1605093815.8,286046998.9,N
1605093835.6,286047000.2,N
1605093855.5,286047000.6,N
1605093875.3,286047002.4,N
1605093895.1,286047002.8,N
1605093915.9,286046998.2,N
1605093935.7,286047001.2,N
1605093955.6,286046999.1,N
1605093975.4,286046998.9,N
1605093995.2,286047000.9,N
1605094015.1,286046998.1,N
1605094016.0,286046998.1,N
1605094035.8,286047001.2,N
1605094055.7,286047002.6,N
1605094075.5,286047000.5,N
1605094095.3,286046998.5,N
1605094115.2,286047000.0,N
1605094135.0,286047000.5,N
1605094135.9,286047000.5,N
1605094155.7,286047000.0,N
1605094175.6,286047000.1,N
1605094195.4,286047000.8,N
1605094215.3,286046998.8,N
1605094235.1,286046999.3,N
1605094236.0,286046999.3,N
1605094255.8,286046998.4,N
1605094275.7,286046999.3,N
1605094295.5,286046999.2,N
1605094315.3,286046997.4,N
1605094335.2,286046996.6,N
1605094355.0,286046997.4,N
1605094355.9,286046997.4,N
1605094375.8,286046997.3,N
1605094395.6,286046997.0,N
1605094415.4,286046996.5,N
1605094435.3,286046998.9,N
1605094455.1,286046997.5,N
1605094475.8,286046996.6,N
1605094495.7,286046996.3,N
1605094515.5,286046994.2,Y
1605094535.4,286046996.8,P
1605094555.2,286046999.5,N
1605094575.0,286047001.1,N
1605094575.9,286047001.1,N
1605094595.8,286047000.2,N
1605094615.6,286047002.1,N
1605094635.5,286047001.1,N
1605094655.3,286046998.4,N
1605094675.1,286046998.6,N
1605094695.9,286047000.7,N
1605094715.7,286046999.3,N
1605094735.5,286046998.9,N
1605094755.4,286046998.9,N
1605094775.2,286047000.8,N
1605094795.0,286047000.5,N
1605094796.0,286047000.5,N
1605094815.8,286046999.9,N
1605094835.6,286047002.8,N
1605094855.5,286046999.9,N
1605094875.3,286047001.1,N
1605094895.1,286047002.5,N
1605094915.9,286047000.4,N
1605094935.7,286047002.5,N
1605094955.5,286046998.4,N
1605094975.4,286047000.7,N
1605094995.2,286047002.1,N
1605095015.1,286047002.2,N
1605095016.0,286047002.2,N
1605095035.8,286047002.6,N
1605095055.6,286047000.0,N
1605095075.5,286047000.1,N
1605095095.3,286047001.1,N
1605095115.1,286046999.0,N
1605095135.9,286046999.9,N
1605095155.7,286047007.2,Y
1605095175.6,286047001.3,P
1605095195.4,286046998.8,P
1605095215.2,286047001.2,N
1605095235.1,286047000.6,N
1605095236.0,286047000.6,N
1605095255.8,286046998.6,N
1605095275.7,286046996.6,Y
1605095295.5,286046998.3,P
1605095315.3,286046998.5,N
1605095335.2,286046999.2,N
1605095355.9,286046998.8,N
1605095375.7,286046998.2,N
1605095395.6,286046999.4,N
1605095415.4,286046994.9,Y
1605095435.3,286046996.6,P
1605095455.1,286047002.7,N
1605095456.0,286047002.7,N
1605095475.8,286047000.4,N
1605095495.7,286047002.0,N
1605095515.5,286047001.6,N
1605095535.3,286047000.5,N
1605095555.2,286047001.8,N
1605095575.0,286047004.2,N
1605095575.9,286047004.2,N
1605095595.8,286047002.8,N
1605095615.6,286047002.0,N
1605095635.4,286047002.7,N
1605095655.3,286047000.4,N
1605095675.1,286047002.7,N
1605095695.8,286047001.4,N
1605095715.7,286047002.8,N
1605095735.5,286047003.2,N
1605095755.4,286047004.3,N
1605095775.2,286047002.7,N
1605095795.0,286047004.4,N
1605095795.9,286047004.4,N
1605095815.8,286047002.3,N
1605095835.6,286047000.6,N
1605095855.5,286046998.1,N
1605095875.3,286046998.6,N
1605095895.1,286047000.7,N
1605095915.9,286047000.5,N
1605095935.7,286047000.1,N
1605095955.5,286046998.5,N
1605095975.4,286046998.3,N
1605095995.2,286047001.6,N
